Winner, SD

3:38 AM CDT on September 15, 2019 (GMT -0500)
Winner

Weather History for KICR - August, 2019

Change the Weather History Date:

Sunday, August 18, 2019

  Actual Average Record
Temperature  
Mean Temperature 65 °F 74 °F  
Max Temperature 76 °F 87 °F 98 °F (2016)
Min Temperature 54 °F 62 °F 53 °F (2015)
Degree Days  
Heating Degree Days 0 0  
Month to date heating degree days 1 0  
Since 1 June heating degree days 39 59  
Since 1 July heating degree days 1 5  
Cooling Degree Days 0 10  
Month to date cooling degree days 146 194  
Year to date cooling degree days 657 700  
Since 1 June cooling degree days 636 670  
Growing Degree Days 15 (Base 50)    
Moisture  
Dew Point 55 °F    
Average Humidity 68    
Maximum Humidity 90    
Minimum Humidity 46    
Precipitation  
Precipitation 0.00 in 0.08 in 1.55 in (2015)
Month to date precipitation 3.22 1.54  
Year to date precipitation 19.77 16.22  
Sea Level Pressure  
Sea Level Pressure 29.90 in    
Wind  
Wind Speed 8 mph (NNW)    
Max Wind Speed 15 mph    
Max Gust Speed 21 mph    
Visibility 10 miles    
Events      
T = Trace of Precipitation, MM = Missing Value Source: NWS Daily Summary

Daily Weather History Graph

Daily Weather History Graph

Search for Another Location

Airport or City:

Astronomy

Aug. 18, 2019 Rise Set
Actual Time 6:47 AM CDT 8:38 PM CDT
Civil Twilight 6:16 AM CDT 9:08 PM CDT
Nautical Twilight 5:39 AM CDT 9:45 PM CDT
Astronomical Twilight 4:59 AM CDT 10:26 PM CDT
Moon 10:28 PM CDT (8/18) 9:38 AM CDT (8/18)
Length of Visible Light 14h 51m
Length of Day
13h 50m
Waning Gibbous, 91% of the Moon is Illuminated
Aug 18
Waning Gibbous
Aug 23
Last Quarter
Aug 30
New
Sep 5
First Quarter
Sep 13
Full

Hourly Weather History & Observations

Time (CDT) Temp. Dew Point Humidity Pressure Visibility Wind Dir Wind Speed Gust Speed Precip Events Conditions
12:15 AM 62.1 °F 57.9 °F 86% 29.85 in 10.0 mi NNW 8.1 mph - N/A   Scattered Clouds
12:53 AM 61.0 °F 57.0 °F 87% 29.82 in 10.0 mi North 5.8 mph - N/A   Partly Cloudy
1:53 AM 59.0 °F 55.9 °F 90% 29.82 in 10.0 mi NNW 9.2 mph - N/A   Clear
2:06 AM 59.0 °F 55.9 °F 90% 29.86 in 10.0 mi NNW 9.2 mph - N/A   Mostly Cloudy
2:50 AM 59.0 °F 55.4 °F 88% 29.85 in 10.0 mi NNW 11.5 mph - N/A   Mostly Cloudy
2:53 AM 59.0 °F 55.9 °F 90% 29.81 in 10.0 mi NNW 10.4 mph - N/A   Mostly Cloudy
3:53 AM 59.0 °F 55.9 °F 90% 29.83 in 10.0 mi NNW 11.5 mph - N/A   Overcast
4:02 AM 59.0 °F 55.9 °F 90% 29.87 in 9.0 mi NNW 12.7 mph - N/A   Overcast
4:43 AM 59.0 °F 55.9 °F 90% 29.89 in 9.0 mi NNW 11.5 mph - N/A   Overcast
4:53 AM 59.0 °F 55.9 °F 90% 29.85 in 10.0 mi NNW 12.7 mph - N/A   Overcast
5:07 AM 59.0 °F 55.0 °F 87% 29.89 in 10.0 mi NNW 13.8 mph 20.7 mph N/A   Overcast
5:14 AM 59.0 °F 55.0 °F 87% 29.89 in 10.0 mi NNW 12.7 mph - N/A   Overcast
5:53 AM 59.0 °F 55.0 °F 87% 29.88 in 10.0 mi NNW 8.1 mph - N/A   Overcast
6:24 AM 55.9 °F 52.0 °F 87% 29.93 in 10.0 mi NW 9.2 mph - N/A   Partly Cloudy
6:53 AM 55.0 °F 51.1 °F 86% 29.92 in 10.0 mi NW 8.1 mph - N/A   Clear
7:53 AM 55.9 °F 52.0 °F 87% 29.94 in 10.0 mi West 9.2 mph - N/A   Clear
8:53 AM 59.0 °F 52.0 °F 78% 29.95 in 10.0 mi WNW 6.9 mph - N/A   Clear
9:53 AM 61.0 °F 51.1 °F 70% 29.95 in 10.0 mi NW 9.2 mph - N/A   Clear
10:53 AM 63.0 °F 51.1 °F 65% 29.96 in 10.0 mi NW 9.2 mph - N/A   Clear
11:53 AM 64.9 °F 51.1 °F 61% 29.96 in 10.0 mi WNW 4.6 mph - N/A   Clear
12:53 PM 69.1 °F 53.1 °F 57% 29.96 in 10.0 mi Variable 3.5 mph - N/A   Clear
1:53 PM 71.1 °F 51.1 °F 49% 29.94 in 10.0 mi Calm Calm - N/A   Clear
2:53 PM 73.0 °F 53.1 °F 49% 29.93 in 10.0 mi East 4.6 mph - N/A   Clear
3:53 PM 75.0 °F 54.0 °F 48% 29.90 in 10.0 mi Calm Calm - N/A   Clear
4:53 PM 75.9 °F 53.1 °F 45% 29.89 in 10.0 mi Variable 6.9 mph - N/A   Clear
5:53 PM 75.0 °F 55.0 °F 50% 29.88 in 10.0 mi ESE 6.9 mph - N/A   Clear
6:53 PM 73.9 °F 57.0 °F 55% 29.87 in 10.0 mi East 6.9 mph - N/A   Clear
7:53 PM 71.1 °F 57.9 °F 63% 29.88 in 10.0 mi ESE 9.2 mph - N/A   Clear
8:53 PM 66.0 °F 57.0 °F 73% 29.90 in 10.0 mi ESE 8.1 mph - N/A   Clear
9:53 PM 63.0 °F 57.0 °F 81% 29.91 in 10.0 mi ESE 9.2 mph - N/A   Clear
10:53 PM 63.0 °F 55.9 °F 78% 29.93 in 10.0 mi ESE 6.9 mph - N/A   Clear
11:53 PM 63.0 °F 55.9 °F 78% 29.93 in 10.0 mi SE 11.5 mph - N/A   Clear